FW5863 Weather Reports


time (UTC)temp
F
wind
direction
speed
knots
gust
knots
rain 1hr
in
rain 24hr
in
rain mn
in
humidity
%
barometer
mb
20260507015458 54 334 7.8 13.9 0.00 0.25 0.18 85 1010.1
20260507014958 54 348 7.8 13.9 0.00 0.25 0.18 85 1010.3
20260507014459 54 321 6.1 13.0 0.00 0.25 0.18 86 1010.2
20260507013958 54 323 5.2 9.6 0.00 0.25 0.18 87 1010.1
20260507012959 55 342 6.1 11.3 0.00 0.25 0.18 88 1009.7
20260507012458 55 328 5.2 9.6 0.00 0.25 0.18 88 1009.7
20260507011958 55 338 5.2 9.6 0.00 0.25 0.18 87 1009.8
20260507011459 55 312 6.1 12.2 0.00 0.25 0.18 87 1009.8
20260507010958 55 342 6.1 12.2 0.00 0.25 0.18 87 1009.5
20260507010458 56 335 7.0 11.3 0.00 0.25 0.18 87 1009.6
20260507010000 56 327 7.8 13.9 0.00 0.25 0.18 87 1009.5
20260507005458 56 50 7.8 13.9 0.00 0.25 0.18 87 1009.3
20260507004458 58 50 7.8 13.9 0.00 0.25 0.18 88 1009.1
20260507003958 58 50 7.8 13.9 0.00 0.25 0.18 88 1008.8
20260507003458 59 50 6.1 13.9 0.00 0.25 0.18 88 1008.7
20260507002959 61 50 3.5 13.9 0.00 0.25 0.18 93 1008.4
20260507002458 61 50 3.5 7.0 0.00 0.25 0.18 93 1008.2
20260507001958 61 50 3.5 7.0 0.00 0.25 0.18 93 1008.0
20260507000958 61 50 4.3 7.8 0.02 0.25 0.18 92 1007.8
20260507000458 61 50 5.2 8.7 0.05 0.25 0.18 92 1007.8
20260506235959 61 50 5.2 9.6 0.11 0.25 0.18 93 1007.7
20260506235458 61 50 5.2 9.6 0.18 0.25 0.18 93 1007.6
20260506234958 61 50 4.3 8.7 0.18 0.25 0.18 93 1007.6
20260506234459 61 50 4.3 7.0 0.18 0.25 0.18 93 1007.6
20260506233958 61 50 4.3 7.0 0.18 0.25 0.18 93 1007.7
20260506233458 61 50 6.1 10.4 0.18 0.25 0.18 92 1007.6
20260506232959 61 50 7.0 10.4 0.18 0.25 0.18 92 1007.6
20260506232458 61 50 7.0 11.3 0.18 0.25 0.18 92 1007.5
20260506231459 61 50 7.0 11.3 0.18 0.25 0.18 92 1007.3
20260506230958 61 50 7.8 13.0 0.16 0.23 0.16 92 1007.3
20260506230458 62 50 6.1 13.0 0.13 0.20 0.13 90 1007.4
20260506225959 63 50 6.1 10.4 0.07 0.14 0.07 92 1007.4
20260506225239 0 0.0 0.0 0.00 0.07 0.00 1007.3
20260506152501 60 50 4.3 10.4 0.07 0.12 0.12 93 1008.8
20260506151502 60 50 5.2 12.2 0.05 0.09 0.09 92 1008.8
20260506150502 60 50 6.1 13.9 0.05 0.07 0.07 92 1008.7
20260506145501 61 50 6.1 13.0 0.05 0.07 0.07 92 1008.4
20260506145001 61 50 4.3 12.2 0.04 0.06 0.06 92 1008.5
20260506144502 60 50 4.3 12.2 0.04 0.06 0.06 92 1008.5
20260506144001 60 50 3.5 7.8 0.04 0.06 0.06 92 1008.6
20260506143501 60 50 4.3 7.8 0.04 0.06 0.06 92 1008.4
20260506143003 60 50 3.5 7.0 0.04 0.05 0.05 91 1008.3
20260506142501 60 50 1.7 5.2 0.04 0.05 0.05 91 1008.5
20260506142002 60 50 2.6 7.0 0.03 0.04 0.04 91 1008.6
20260506141502 61 50 3.5 7.8 0.03 0.04 0.04 91 1008.8
20260506141001 61 50 3.5 7.8 0.02 0.03 0.03 91 1008.8
20260506140501 61 50 2.6 7.0 0.01 0.02 0.02 90 1008.8
20260506135001 61 50 3.5 7.0 0.02 0.02 0.02 90 1008.6
20260506134001 61 50 3.5 7.8 0.02 0.02 0.02 90 1008.7
20260506133501 61 50 3.5 8.7 0.02 0.02 0.02 90 1008.8
20260506133002 61 50 3.5 8.7 0.01 0.01 0.01 90 1008.9
20260506132501 61 50 3.5 7.0 0.01 0.01 0.01 89 1009.0
20260506132002 61 50 3.5 10.4 0.01 0.01 0.01 89 1009.0
20260506131503 61 50 3.5 10.4 0.01 0.01 0.01 88 1009.0
20260506131001 61 50 4.3 10.4 0.01 0.01 0.01 88 1009.0
20260506130501 61 50 4.3 10.4 0.01 0.01 0.01 87 1009.0
20260506130004 61 50 4.3 10.4 0.00 0.00 0.00 87 1009.0
20260506125501 61 50 5.2 10.4 0.00 0.00 0.00 87 1009.1
20260506125002 62 50 5.2 9.6 0.00 0.00 0.00 86 1009.1
20260506124001 62 50 5.2 13.0 0.00 0.00 0.00 84 1009.1
20260506123501 62 50 6.1 11.3 0.00 0.00 0.00 83 1008.9
20260506122501 63 50 5.2 11.3 0.00 0.00 0.00 82 1008.8
20260506121502 63 50 5.2 9.6 0.00 0.00 0.00 81 1008.7
20260506121001 63 50 6.1 11.3 0.00 0.00 0.00 80 1008.6
20260506120502 64 50 6.1 11.3 0.00 0.00 0.00 79 1008.5
20260506120004 64 50 6.1 11.3 0.00 0.00 0.00 79 1008.5
20260506115001 64 50 7.0 13.0 0.00 0.00 0.00 78 1008.5
20260506114502 64 50 7.0 12.2 0.00 0.00 0.00 78 1008.6
20260506114001 64 50 6.1 12.2 0.00 0.00 0.00 78 1008.5
20260506113502 64 50 5.2 11.3 0.00 0.00 0.00 78 1008.4
20260506113002 64 50 5.2 11.3 0.00 0.00 0.00 78 1008.5
20260506112501 64 50 6.1 10.4 0.00 0.00 0.00 78 1008.5
20260506112001 64 50 7.0 11.3 0.00 0.00 0.00 78 1008.6
20260506111502 64 50 7.0 13.9 0.00 0.00 0.00 77 1008.5
20260506111001 64 50 6.1 13.9 0.00 0.00 0.00 77 1008.5
20260506110501 64 50 5.2 10.4 0.00 0.00 0.00 77 1008.5
20260506110004 64 50 5.2 11.3 0.00 0.00 0.00 77 1008.4
20260506105501 64 50 5.2 11.3 0.00 0.00 0.00 77 1008.3
20260506104502 64 50 5.2 11.3 0.00 0.00 0.00 76 1008.1
20260506104001 64 50 5.2 10.4 0.00 0.00 0.00 76 1008.1
20260506103501 64 50 6.1 11.3 0.00 0.00 0.00 76 1008.0
20260506102501 64 50 5.2 10.4 0.00 0.00 0.00 76 1008.0
20260506102001 64 50 4.3 10.4 0.00 0.00 0.00 76 1007.9
20260506101502 64 50 4.3 10.4 0.00 0.00 0.00 76 1007.8
20260506101001 64 50 6.1 10.4 0.00 0.00 0.00 75 1007.9
20260506100501 64 50 5.2 11.3 0.00 0.00 0.00 75 1007.9
20260506100004 64 50 5.2 11.3 0.00 0.00 0.00 75 1007.9
20260506095501 64 50 5.2 16.5 0.00 0.00 0.00 75 1007.9
20260506094503 64 50 4.3 9.6 0.00 0.00 0.00 74 1008.1
20260506094001 64 50 4.3 9.6 0.00 0.00 0.00 74 1008.1
20260506093501 64 50 4.3 8.7 0.00 0.00 0.00 74 1008.1
20260506092501 64 50 4.3 10.4 0.00 0.00 0.00 73 1008.0
20260506092002 65 50 4.3 10.4 0.00 0.00 0.00 72 1008.0
20260506091504 65 50 4.3 9.6 0.00 0.00 0.00 72 1008.1
20260506091002 65 50 5.2 11.3 0.00 0.00 0.00 72 1008.1
20260506090504 65 50 5.2 11.3 0.00 0.00 0.00 71 1008.0
20260506090005 65 50 4.3 11.3 0.00 0.04 0.00 71 1008.1
20260506085001 65 50 4.3 10.4 0.00 0.04 0.00 71 1008.1
20260506084502 65 50 4.3 9.6 0.00 0.04 0.00 71 1008.1
20260506084001 65 50 5.2 10.4 0.00 0.04 0.00 70 1008.2
20260506083501 65 50 5.2 10.4 0.00 0.04 0.00 70 1008.2
20260506083003 65 50 5.2 10.4 0.00 0.04 0.00 70 1008.2
20260506082501 65 50 4.3 11.3 0.00 0.04 0.00 69 1008.2
20260506082001 65 50 5.2 11.3 0.00 0.04 0.00 69 1008.2
20260506081502 65 50 4.3 10.4 0.00 0.04 0.00 68 1008.2
20260506081001 65 50 4.3 10.4 0.00 0.04 0.00 68 1008.2
20260506080502 66 50 4.3 9.6 0.00 0.04 0.00 68 1008.2
20260506073501 66 50 3.5 7.0 0.00 0.04 0.00 65 1008.3
20260506073003 66 50 2.6 7.0 0.00 0.04 0.00 65 1008.3
20260506072501 66 50 2.6 7.0 0.00 0.04 0.00 65 1008.4
20260506071001 66 50 3.5 7.8 0.00 0.04 0.00 64 1008.5
20260506070501 67 50 3.5 7.8 0.00 0.04 0.00 64 1008.5
20260506062501 67 50 4.3 8.7 0.00 0.04 0.00 63 1008.7
20260506062003 67 50 3.5 8.7 0.00 0.04 0.00 63 1008.8
20260506061001 67 50 4.3 9.6 0.00 0.04 0.00 62 1008.9
20260506060501 67 50 3.5 7.8 0.00 0.04 0.00 62 1009.0
20260506051003 67 50 4.3 10.4 0.00 0.04 0.00 60 1009.3
20260506050501 67 50 4.3 10.4 0.00 0.04 0.00 60 1009.4
20260506045001 67 50 2.6 7.0 0.00 0.04 0.00 60 1009.4
20260506044502 67 50 3.5 7.8 0.00 0.04 0.00 60 1009.4
20260506044001 67 50 4.3 7.8 0.00 0.04 0.00 60 1009.4
20260506043501 66 50 3.5 7.8 0.00 0.04 0.00 60 1009.3
20260506043003 66 50 3.5 7.8 0.00 0.04 0.00 60 1009.3
20260506042501 66 50 3.5 7.0 0.00 0.04 0.00 61 1009.4
20260506042001 66 50 3.5 8.7 0.00 0.04 0.00 60 1009.4
20260506041503 67 50 4.3 9.6 0.00 0.04 0.00 60 1009.4
20260506041001 67 50 3.5 9.6 0.00 0.04 0.00 61 1009.5
20260506040501 67 50 3.5 7.0 0.00 0.04 0.00 61 1009.4
20260506040004 67 50 2.6 5.2 0.00 0.04 0.04 60 1009.4
20260506035501 67 50 3.5 7.0 0.00 0.04 0.04 60 1009.3
20260506035002 67 50 2.6 7.0 0.00 0.04 0.04 60 1009.4
20260506034502 67 50 2.6 5.2 0.00 0.04 0.04 60 1009.4
20260506034001 67 50 2.6 5.2 0.00 0.04 0.04 59 1009.4
20260506033501 67 50 2.6 7.0 0.00 0.04 0.04 59 1009.4
20260506033002 67 50 3.5 7.0 0.00 0.04 0.04 59 1009.4
20260506032502 68 50 2.6 5.2 0.00 0.04 0.04 58 1009.4
20260506032001 68 50 3.5 7.0 0.00 0.04 0.04 58 1009.4
20260506031502 68 50 3.5 7.0 0.00 0.04 0.04 57 1009.4
20260506031001 68 50 2.6 7.0 0.00 0.04 0.04 57 1009.4
20260506030501 68 50 3.5 7.8 0.00 0.04 0.04 57 1009.4
20260506030004 69 50 3.5 7.8 0.00 0.04 0.04 56 1009.5
20260506025501 69 50 3.5 7.8 0.00 0.04 0.04 56 1009.4
20260506025001 69 50 4.3 8.7 0.00 0.04 0.04 55 1009.4
20260506024502 69 50 3.5 8.7 0.00 0.04 0.04 55 1009.4
20260506024001 69 50 3.5 9.6 0.00 0.04 0.04 54 1009.4
20260506023002 70 50 3.5 9.6 0.00 0.04 0.04 54 1009.5
20260506022501 70 50 3.5 9.6 0.00 0.04 0.04 53 1009.5
20260506022001 70 50 3.5 7.8 0.00 0.04 0.04 53 1009.5
20260506021502 70 50 3.5 7.0 0.00 0.04 0.04 53 1009.5